This is the latest recevied weather packets stored in our database for station/object EB1HRW. If no packets are shown the sender has not sent any weather packets the latest 1 day(s).
| Time | Temp. | Humidity | Pressure | Rain* | Wind** | Luminosity | Snow |
|---|---|---|---|---|---|---|---|
| 1778045037 | 3.89° C | 80% | 1014.2 hPa | 0 mm | - | - | - |
| 1778042337 | 4.44° C | 80% | 1014 hPa | 0 mm | - | - | - |
| 1778041438 | 4.44° C | 80% | 1014 hPa | 0 mm | - | - | - |
| 1778040538 | 4.44° C | 80% | 1014 hPa | 0 mm | - | - | - |
| 1778039637 | 4.44° C | 80% | 1014.1 hPa | 0 mm | - | - | - |
| 1778037838 | 5° C | 81% | 1014.3 hPa | 0 mm | - | - | - |
| 1778036939 | 5° C | 81% | 1014.3 hPa | 0 mm | - | - | - |
| 1778036037 | 5° C | 82% | 1014.3 hPa | 0 mm | - | - | - |
| 1778035138 | 5° C | 84% | 1014.2 hPa | 0 mm | - | - | - |
| 1778033337 | 5.56° C | 84% | 1014.1 hPa | 0 mm | - | - | - |
| 1778032438 | 5.56° C | 84% | 1014 hPa | 0 mm | - | - | - |
| 1778031538 | 5.56° C | 83% | 1014.2 hPa | 0 mm | - | - | - |
| 1778030637 | 5.56° C | 84% | 1014.3 hPa | 0 mm | - | - | - |
| 1778029737 | 6.11° C | 84% | 1014.4 hPa | 0 mm | - | - | - |
| 1778028838 | 6.11° C | 84% | 1014.4 hPa | 0 mm | - | - | - |
| 1778027937 | 6.67° C | 85% | 1014.5 hPa | 0 mm | - | - | - |
| 1778026138 | 6.67° C | 85% | 1014.4 hPa | 0 mm | - | - | - |
| 1778025237 | 6.67° C | 85% | 1014.4 hPa | 0 mm | - | - | - |
| 1778020738 | 7.22° C | 84% | 1014.5 hPa | 0 mm | - | - | - |
| 1778019839 | 7.78° C | 84% | 1014.6 hPa | 0 mm | - | - | - |
| 1778018038 | 8.33° C | 84% | 1014.6 hPa | 0 mm | - | - | - |
| 1778017137 | 8.33° C | 84% | 1014.5 hPa | 0 mm | - | - | - |
| 1778016239 | 8.89° C | 80% | 1014.5 hPa | 0 mm | - | - | - |
* Rain latest hour (hover to see other rain measurements)
** Current wind speed in m/s (hover to see current wind gust speed)